Hourly Data Report for September 13, 2018

TORONTO CITY
ONTARIO
Current Station Operator: ECCC - MSC

43°40'00.000" N
79°24'00.000" W
112.50 m
6158355
71508
XTO

Download Data

Hourly Data (September 2018)
Hourly Data Report for September 13, 2018
TIME
LST
Temp Definition
°C
Dew Point Definition
°C
Rel Hum Definition
%
Precip. Amount Definition
mm

Wind Dir Definition
10's deg

Wind Spd Definition
km/h
Visibility Definition
km
Stn Press Definition
kPa
Hmdx Definition


Wind Chill Definition


Weather Definition


00:00 19.1 16.2 83 0.0 LegendMM LegendMM   101.08     LegendNANA
01:00 19.1 16.5 85 0.0 LegendMM LegendMM   101.08     LegendNANA
02:00 17.9 15.7 87 0.0 LegendMM LegendMM   101.11     LegendNANA
03:00 17.7 15.6 88 0.0 LegendMM LegendMM   101.09     LegendNANA
04:00 17.6 15.6 88 0.0 LegendMM LegendMM   101.11     LegendNANA
05:00 18.2 16.3 89 0.0 LegendMM LegendMM   101.12     LegendNANA
06:00 18.2 16.0 87 0.0 LegendMM LegendMM   101.14     LegendNANA
07:00 18.9 15.6 81 0.0 LegendMM LegendMM   101.18     LegendNANA
08:00 20.2 15.7 75 0.0 LegendMM LegendMM   101.18 25   LegendNANA
09:00 20.4 15.6 74 0.0 LegendMM LegendMM   101.24 25   LegendNANA
10:00 20.8 15.4 71 0.0 LegendMM LegendMM   101.23 25   LegendNANA
11:00 21.6 15.6 69 0.0 LegendMM LegendMM   101.20 26   LegendNANA
12:00 23.3 16.3 65 0.0 LegendMM LegendMM   101.17 28   LegendNANA
13:00 23.7 15.7 61 0.0 LegendMM LegendMM   101.10 28   LegendNANA
14:00 24.3 14.3 54 0.0 LegendMM LegendMM   101.06 28   LegendNANA
15:00 23.7 14.5 56 0.0 LegendMM LegendMM   101.03 27   LegendNANA
16:00 23.5 13.6 54 0.0 LegendMM LegendMM   100.95 27   LegendNANA
17:00 23.4 13.8 55 0.0 LegendMM LegendMM   100.90 27   LegendNANA
18:00 23.1 14.8 60 0.0 LegendMM LegendMM   100.90 27   LegendNANA
19:00 22.4 15.0 63 0.0 LegendMM LegendMM   100.90 26   LegendNANA
20:00 21.7 16.0 70 0.0 LegendMM LegendMM   100.92 26   LegendNANA
21:00 21.7 15.8 69 0.0 LegendMM LegendMM   100.91 26   LegendNANA
22:00 21.8 15.5 68 0.0 LegendMM LegendMM   100.90 26   LegendNANA
23:00 21.4 15.7 70 0.0 LegendMM LegendMM   100.89 26   LegendNANA

Notes on Data Quality.

Legend

  • E = Estimated
  • M = Missing
  • NA = Not Available*
  • [empty] = Indicates an unobserved value
Date modified: